Weather History for Clovis, NM

Change the Weather History Date:

Saturday, October 6, 2012

  Actual Average Record
Temperature  
Mean Temperature 44 °F -  
Max Temperature 50 °F 75 °F 90 °F (1911)
Min Temperature 39 °F 46 °F 33 °F (1952)
Degree Days  
Heating Degree Days 20    
Moisture  
Dew Point 28 °F    
Average Humidity 54    
Maximum Humidity 70    
Minimum Humidity 43    
Precipitation  
Precipitation 0.00 in - - ()
Sea Level Pressure  
Sea Level Pressure 30.24 in    
Wind  
Wind Speed 15 mph (East)    
Max Wind Speed 24 mph    
Max Gust Speed 30 mph    
Visibility 10 miles    
Events      
Averages and records for this station are not official NWS values.
T = Trace of Precipitation, MM = Missing Value Source: NWS Daily Summary

Daily Weather History Graph

Daily Weather History Graph

Search for Another Location

Airport:

Trip Planner

Search our weather history database for the weather conditions in past years. The results will help you decide how hot, cold, wet, or windy it might be!

Date:

Astronomy

Oct. 06, 2012 Rise Set
Actual Time 6:51 AM MDT 6:28 PM MDT
Civil Twilight 6:25 AM MDT 6:53 PM MDT
Nautical Twilight 5:56 AM MDT 7:23 PM MDT
Astronomical Twilight 5:27 AM MDT 7:52 PM MDT
Moon 10:57 PM MDT (10/6) 12:35 PM MDT (10/6)
Length of Visible Light 12h 28m
Length of Day
11h 37m
Waning Gibbous, 65% of the Moon is Illuminated
Oct 6
Waning Gibbous
Oct 8
Last Quarter
Oct 15
New
Oct 21
First Quarter
Oct 29
Full

Hourly Weather History & Observations

Time (MDT) Temp. Windchill Dew Point Humidity Pressure Visibility Wind Dir Wind Speed Gust Speed Precip Events Conditions
12:15 AM 50.0 °F - 37.4 °F 62% 30.22 in 10.0 mi East 19.6 mph 25.3 mph N/A   Overcast
12:35 AM 48.2 °F - 35.6 °F 62% 30.21 in 10.0 mi East 21.9 mph 29.9 mph N/A   Overcast
12:55 AM 48.2 °F - 35.6 °F 62% 30.22 in 10.0 mi East 21.9 mph 26.5 mph N/A   Overcast
1:15 AM 46.4 °F 38.5 °F 33.8 °F 62% 30.22 in 10.0 mi East 21.9 mph - N/A   Overcast
1:35 AM 46.4 °F 38.1 °F 33.8 °F 62% 30.23 in 10.0 mi East 24.2 mph 29.9 mph N/A   Overcast
1:55 AM 46.4 °F 39.0 °F 33.8 °F 62% 30.24 in 10.0 mi East 19.6 mph 27.6 mph N/A   Overcast
2:15 AM 44.6 °F 36.4 °F 32.0 °F 61% 30.24 in 10.0 mi ENE 20.7 mph - N/A   Overcast
2:35 AM 44.6 °F 36.6 °F 30.2 °F 57% 30.23 in 10.0 mi East 19.6 mph - N/A   Overcast
2:55 AM 44.6 °F 36.9 °F 30.2 °F 57% 30.22 in 10.0 mi East 18.4 mph - N/A   Overcast
3:35 AM 44.6 °F 37.8 °F 30.2 °F 57% 30.22 in 10.0 mi East 15.0 mph - N/A   Overcast
3:55 AM 44.6 °F 38.1 °F 30.2 °F 57% 30.22 in 10.0 mi East 13.8 mph - N/A   Overcast
4:15 AM 44.6 °F 37.8 °F 30.2 °F 57% 30.22 in 10.0 mi East 15.0 mph - N/A   Overcast
4:35 AM 44.6 °F 37.4 °F 30.2 °F 57% 30.22 in 10.0 mi East 16.1 mph - N/A   Overcast
4:55 AM 42.8 °F 35.4 °F 30.2 °F 61% 30.22 in 10.0 mi East 15.0 mph 19.6 mph N/A   Overcast
5:15 AM 42.8 °F 35.4 °F 30.2 °F 61% 30.22 in 10.0 mi East 15.0 mph - N/A   Overcast
5:35 AM 42.8 °F 35.8 °F 30.2 °F 61% 30.22 in 10.0 mi East 13.8 mph - N/A   Overcast
5:55 AM 42.8 °F 36.6 °F 30.2 °F 61% 30.24 in 10.0 mi East 11.5 mph - N/A   Overcast
6:15 AM 42.8 °F 36.2 °F 30.2 °F 61% 30.24 in 10.0 mi East 12.7 mph - N/A   Overcast
6:35 AM 41.0 °F 34.3 °F 30.2 °F 65% 30.25 in 10.0 mi East 11.5 mph - N/A   Overcast
6:55 AM 41.0 °F 33.5 °F 30.2 °F 65% 30.24 in 10.0 mi East 13.8 mph - N/A   Overcast
7:15 AM 39.2 °F 31.2 °F 30.2 °F 70% 30.25 in 10.0 mi East 13.8 mph - N/A   Overcast
7:35 AM 39.2 °F 32.0 °F 30.2 °F 70% 30.25 in 10.0 mi East 11.5 mph - N/A   Overcast
7:55 AM 39.2 °F 32.0 °F 30.2 °F 70% 30.26 in 10.0 mi East 11.5 mph - N/A   Overcast
8:15 AM 39.2 °F 33.0 °F 30.2 °F 70% 30.26 in 10.0 mi East 9.2 mph - N/A   Overcast
8:35 AM 41.0 °F 34.3 °F 28.4 °F 61% 30.26 in 10.0 mi ESE 11.5 mph - N/A   Overcast
8:55 AM 41.0 °F 33.9 °F 26.6 °F 57% 30.26 in 10.0 mi East 12.7 mph - N/A   Overcast
9:15 AM 41.0 °F 34.7 °F 26.6 °F 57% 30.27 in 10.0 mi East 10.4 mph - N/A   Overcast
9:35 AM 42.8 °F 36.6 °F 26.6 °F 53% 30.27 in 10.0 mi East 11.5 mph - N/A   Overcast
9:55 AM 42.8 °F 37.5 °F 26.6 °F 53% 30.26 in 10.0 mi ESE 9.2 mph - N/A   Overcast
10:15 AM 42.8 °F 37.0 °F 26.6 °F 53% 30.26 in 10.0 mi ESE 10.4 mph - N/A   Overcast
10:35 AM 42.8 °F 36.2 °F 26.6 °F 53% 30.25 in 10.0 mi ESE 12.7 mph - N/A   Overcast
10:55 AM 42.8 °F 37.5 °F 26.6 °F 53% 30.25 in 10.0 mi ESE 9.2 mph - N/A   Overcast
11:15 AM 44.6 °F 39.2 °F 26.6 °F 49% 30.25 in 10.0 mi ESE 10.4 mph - N/A   Overcast
11:35 AM 44.6 °F 39.2 °F 24.8 °F 46% 30.24 in 10.0 mi East 10.4 mph - N/A   Overcast
11:55 AM 44.6 °F 40.2 °F 26.6 °F 49% 30.24 in 10.0 mi East 8.1 mph - N/A   Overcast
12:15 PM 44.6 °F 42.2 °F 26.6 °F 49% 30.25 in 10.0 mi East 4.6 mph - N/A   Overcast
12:35 PM 46.4 °F 42.9 °F 26.6 °F 46% 30.23 in 10.0 mi ESE 6.9 mph - N/A   Overcast
12:55 PM 46.4 °F 42.4 °F 26.6 °F 46% 30.23 in 10.0 mi SE 8.1 mph - N/A   Overcast
1:15 PM 46.4 °F 42.4 °F 26.6 °F 46% 30.22 in 10.0 mi SE 8.1 mph - N/A   Overcast
1:35 PM 46.4 °F 41.1 °F 26.6 °F 46% 30.20 in 10.0 mi ESE 11.5 mph - N/A   Overcast
1:55 PM 46.4 °F 42.4 °F 26.6 °F 46% 30.19 in 10.0 mi ESE 8.1 mph - N/A   Overcast
2:15 PM 46.4 °F 42.9 °F 26.6 °F 46% 30.19 in 10.0 mi ESE 6.9 mph - N/A   Overcast
2:35 PM 48.2 °F - 26.6 °F 43% 30.19 in 10.0 mi ENE 10.4 mph - N/A   Overcast
2:55 PM 48.2 °F - 28.4 °F 46% 30.19 in 10.0 mi East 9.2 mph - N/A   Overcast
3:15 PM 48.2 °F - 28.4 °F 46% 30.18 in 10.0 mi East 9.2 mph - N/A   Overcast
3:35 PM 48.2 °F - 28.4 °F 46% 30.18 in 10.0 mi East 12.7 mph 18.4 mph N/A   Overcast
3:55 PM 48.2 °F - 28.4 °F 46% 30.19 in 10.0 mi East 6.9 mph - N/A   Overcast
4:15 PM 48.2 °F - 28.4 °F 46% 30.19 in 10.0 mi ENE 11.5 mph - N/A   Overcast
4:35 PM 48.2 °F - 28.4 °F 46% 30.19 in 10.0 mi ENE 10.4 mph - N/A   Overcast
4:55 PM 48.2 °F - 28.4 °F 46% 30.20 in 10.0 mi ENE 13.8 mph - N/A   Overcast
5:15 PM 46.4 °F 41.1 °F 28.4 °F 50% 30.19 in 10.0 mi ENE 11.5 mph - N/A   Overcast
5:35 PM 46.4 °F 40.1 °F 28.4 °F 50% 30.20 in 10.0 mi ENE 15.0 mph - N/A   Overcast
5:55 PM 46.4 °F 39.8 °F 28.4 °F 50% 30.21 in 10.0 mi ENE 16.1 mph - N/A   Overcast
6:15 PM 46.4 °F 40.4 °F 28.4 °F 50% 30.22 in 10.0 mi ENE 13.8 mph - N/A   Overcast
6:35 PM 44.6 °F 37.8 °F 28.4 °F 53% 30.22 in 10.0 mi ENE 15.0 mph 19.6 mph N/A   Overcast
6:55 PM 44.6 °F 37.2 °F 26.6 °F 49% 30.24 in 10.0 mi ENE 17.3 mph - N/A   Overcast
7:15 PM 44.6 °F 38.1 °F 26.6 °F 49% 30.25 in 10.0 mi ENE 13.8 mph - N/A   Overcast
7:35 PM 44.6 °F 37.8 °F 26.6 °F 49% 30.25 in 10.0 mi East 15.0 mph - N/A   Overcast
7:55 PM 44.6 °F 38.4 °F 26.6 °F 49% 30.26 in 10.0 mi ENE 12.7 mph - N/A   Overcast
8:15 PM 42.8 °F 35.1 °F 26.6 °F 53% 30.27 in 10.0 mi ENE 16.1 mph - N/A   Overcast
8:35 PM 42.8 °F 35.4 °F 26.6 °F 53% 30.28 in 10.0 mi ENE 15.0 mph - N/A   Mostly Cloudy
8:55 PM 41.0 °F 33.1 °F 24.8 °F 53% 30.29 in 10.0 mi ENE 15.0 mph - N/A   Partly Cloudy
9:15 PM 41.0 °F 33.5 °F 24.8 °F 53% 30.31 in 10.0 mi ENE 13.8 mph - N/A   Mostly Cloudy
9:35 PM 41.0 °F 33.5 °F 24.8 °F 53% 30.31 in 10.0 mi ENE 13.8 mph - N/A   Overcast
9:55 PM 41.0 °F 33.1 °F 24.8 °F 53% 30.31 in 10.0 mi ENE 15.0 mph - N/A   Overcast
10:15 PM 41.0 °F 34.3 °F 24.8 °F 53% 30.31 in 10.0 mi East 11.5 mph - N/A   Overcast
10:35 PM 41.0 °F 33.1 °F 24.8 °F 53% 30.32 in 10.0 mi East 15.0 mph - N/A   Overcast
10:55 PM 41.0 °F 32.8 °F 24.8 °F 53% 30.31 in 10.0 mi East 16.1 mph - N/A   Overcast
11:15 PM 39.2 °F 30.8 °F 24.8 °F 56% 30.31 in 10.0 mi East 15.0 mph - N/A   Overcast
11:35 PM 39.2 °F 31.2 °F 24.8 °F 56% 30.32 in 10.0 mi East 13.8 mph - N/A   Overcast
11:55 PM 39.2 °F 31.2 °F 24.8 °F 56% 30.32 in 10.0 mi East 13.8 mph - N/A   Overcast